START_TIME,STEP,MOV.,A46,t_acc.,A13,t_acc.,M47,t_acc.,A17,t_acc.,A28,t_acc.,M38,t_acc.
1979-08-02 23:07:12.330 ,0,0,,0,0.,4.8,0.,4.8,,0,0.,4.8,0.,4.8
1979-08-02 23:07:17.130 ,0,0,,0,0.,4.8,0.,4.8,,0,0.,4.8,0.,4.8
1979-08-02 23:07:21.930 ,0,0,,0,0.,4.8,0.,4.8,,0,0.,4.8,0.,4.8
1979-08-02 23:07:26.730 ,0,0,,0,3.,4.8,0.,4.8,,0,0.,4.8,0.,4.8
1979-08-02 23:07:31.530 ,0,0,,0,5.,4.8,0.,4.8,,0,0.,4.8,0.,4.8
1979-08-02 23:07:36.330 ,0,0,,0,5.,4.8,0.,4.8,,0,0.,4.8,0.,4.8
1979-08-02 23:07:41.130 ,0,0,,0,5.,4.8,0.,4.8,,0,0.,4.8,0.,4.8
1979-08-02 23:07:45.930 ,0,0,,0,5.,4.8,0.,4.8,,0,0.,4.8,0.,4.8
1979-08-02 23:07:50.730 ,0,0,,0,0.,4.8,0.,4.8,,0,0.,4.8,0.,4.8
1979-08-02 23:07:55.530 ,0,0,,0,0.,4.8,0.,4.8,,0,0.,4.8,1.,4.8
1979-08-02 23:08:00.330 ,4,0,,0,0.,4.8,0.,4.8,,0,0.,4.8,0.,4.8
1979-08-02 23:08:05.130 ,4,0,,0,0.,4.8,0.,4.8,,0,0.,4.8,0.,4.8
1979-08-02 23:08:09.930 ,4,0,,0,1.,4.8,0.,4.8,,0,0.,4.8,0.,4.8
1979-08-02 23:08:14.730 ,4,0,,0,1.,4.8,0.,4.8,,0,0.,4.8,0.,4.8
1979-08-02 23:08:19.530 ,4,0,,0,1.,4.8,0.,4.8,,0,0.,4.8,0.,4.8
1979-08-02 23:08:24.330 ,4,0,,0,1.,4.8,0.,4.8,,0,0.,4.8,0.,4.8
1979-08-02 23:08:29.130 ,4,0,,0,3.,4.8,0.,4.8,,0,0.,4.8,0.,4.8
1979-08-02 23:08:33.930 ,4,0,,0,4.,4.8,0.,4.8,,0,0.,4.8,0.,4.8
1979-08-02 23:08:38.730 ,4,0,,0,0.,4.8,0.,4.8,,0,0.,4.8,0.,4.8
1979-08-02 23:08:43.530 ,4,0,,0,1.,4.8,0.,4.8,,0,0.,4.8,0.,4.8
1979-08-02 23:08:48.330 ,3,0,,0,0.,4.8,0.,4.8,,0,0.,4.8,0.,4.8
1979-08-02 23:08:53.130 ,3,0,,0,0.,4.8,0.,4.8,,0,0.,4.8,0.,4.8
1979-08-02 23:08:57.930 ,3,0,,0,0.,4.8,0.,4.8,,0,0.,4.8,0.,4.8
1979-08-02 23:09:02.730 ,3,0,,0,3.,4.8,0.,4.8,,0,0.,4.8,0.,4.8
1979-08-02 23:09:07.530 ,3,0,,0,2.,4.8,0.,4.8,,0,0.,4.8,0.,4.8
1979-08-02 23:09:12.330 ,3,0,,0,2.,4.8,0.,4.8,,0,0.,4.8,1.,4.8
1979-08-02 23:09:17.130 ,3,0,,0,2.,4.8,0.,4.8,,0,0.,4.8,0.,4.8
1979-08-02 23:09:21.930 ,3,0,,0,3.,4.8,0.,4.8,,0,0.,4.8,0.,4.8
1979-08-02 23:09:26.730 ,3,0,,0,0.,4.8,0.,4.8,,0,0.,4.8,0.,4.8
1979-08-02 23:09:31.530 ,3,0,,0,0.,4.8,0.,4.8,,0,0.,4.8,2.,4.8
1979-08-02 23:09:36.330 ,2,0,,0,0.,4.8,0.,4.8,,0,0.,4.8,0.,4.8
1979-08-02 23:09:41.130 ,2,0,,0,0.,4.8,0.,4.8,,0,0.,4.8,0.,4.8
1979-08-02 23:09:45.930 ,2,0,,0,0.,4.8,0.,4.8,,0,0.,4.8,1.,4.8
1979-08-02 23:09:50.730 ,2,0,,0,5.,4.8,0.,4.8,,0,0.,4.8,0.,4.8
1979-08-02 23:09:55.530 ,2,0,,0,4.,4.8,0.,4.8,,0,0.,4.8,0.,4.8
1979-08-02 23:10:00.330 ,2,0,,0,3.,4.8,0.,4.8,,0,0.,4.8,0.,4.8
1979-08-02 23:10:05.130 ,2,0,,0,3.,4.8,0.,4.8,,0,0.,4.8,0.,4.8
1979-08-02 23:10:09.930 ,2,0,,0,3.,4.8,0.,4.8,,0,0.,4.8,1.,4.8
1979-08-02 23:10:14.730 ,2,0,,0,0.,4.8,0.,4.8,,0,0.,4.8,0.,4.8
1979-08-02 23:10:19.530 ,2,0,,0,0.,4.8,0.,4.8,,0,0.,4.8,0.,4.8
1979-08-02 23:10:24.330 ,1,0,,0,0.,4.8,0.,4.8,,0,0.,4.8,0.,4.8
1979-08-02 23:10:29.130 ,1,0,,0,0.,4.8,0.,4.8,,0,0.,4.8,1.,4.8
1979-08-02 23:10:33.930 ,1,0,,0,1.,4.8,0.,4.8,,0,0.,4.8,0.,4.8
1979-08-02 23:10:38.730 ,1,0,,0,5.,4.8,1.,4.8,,0,0.,4.8,0.,4.8
1979-08-02 23:10:43.530 ,1,0,,0,10.,4.8,1.,4.8,,0,0.,4.8,1.,4.8
1979-08-02 23:10:48.330 ,1,0,,0,2.,4.8,0.,4.8,,0,0.,4.8,0.,4.8
1979-08-02 23:10:53.130 ,1,0,,0,3.,4.8,0.,4.8,,0,0.,4.8,0.,4.8
1979-08-02 23:10:57.930 ,1,0,,0,3.,4.8,0.,4.8,,0,0.,4.8,0.,4.8
1979-08-02 23:11:02.730 ,1,0,,0,0.,4.8,0.,4.8,,0,0.,4.8,0.,4.8
1979-08-02 23:11:07.530 ,1,0,,0,0.,4.8,0.,4.8,,0,0.,4.8,0.,4.8
1979-08-02 23:11:12.330 ,0,0,,0,0.,4.8,0.,4.8,,0,1.,4.8,1.,4.8
1979-08-02 23:11:17.130 ,0,0,,0,0.,4.8,0.,4.8,,0,0.,4.8,0.,4.8
1979-08-02 23:11:21.930 ,0,0,,0,0.,4.8,0.,4.8,,0,0.,4.8,1.,4.8
1979-08-02 23:11:26.730 ,0,0,,0,4.,4.8,1.,4.8,,0,0.,4.8,3.,4.8
1979-08-02 23:11:31.530 ,0,0,,0,3.,4.8,0.,4.8,,0,0.,4.8,2.,4.8
1979-08-02 23:11:36.330 ,0,0,,0,2.,4.8,1.,4.8,,0,0.,4.8,0.,4.8
1979-08-02 23:11:41.130 ,0,0,,0,2.,4.8,0.,4.8,,0,0.,4.8,0.,4.8
1979-08-02 23:11:45.930 ,0,0,,0,1.,4.8,0.,4.8,,0,0.,4.8,2.,4.8
1979-08-02 23:11:50.730 ,0,0,,0,0.,4.8,0.,4.8,,0,0.,4.8,0.,4.8
1979-08-02 23:11:55.530 ,0,0,,0,0.,4.8,0.,4.8,,0,0.,4.8,2.,4.8
1979-08-02 23:12:00.330 ,0,0,,0,0.,4.8,0.,4.8,,0,0.,4.8,0.,4.8
1979-08-02 23:12:05.130 ,0,0,,0,0.,4.8,0.,4.8,,0,0.,4.8,2.,4.8
1979-08-02 23:12:09.930 ,0,0,,0,0.,4.8,0.,4.8,,0,0.,4.8,1.,4.8
1979-08-02 23:12:14.730 ,0,0,,0,0.,4.8,0.,4.8,,0,0.,4.8,0.,4.8
1979-08-02 23:12:19.530 ,0,0,,0,9.,4.8,1.,4.8,,0,0.,4.8,0.,4.8
1979-08-02 23:12:24.330 ,0,0,,0,5.,4.8,0.,4.8,,0,0.,4.8,0.,4.8
1979-08-02 23:12:29.130 ,0,0,,0,4.,4.8,0.,4.8,,0,0.,4.8,2.,4.8
1979-08-02 23:12:33.930 ,0,0,,0,4.,4.8,0.,4.8,,0,0.,4.8,2.,4.8
1979-08-02 23:12:38.730 ,0,0,,0,0.,4.8,0.,4.8,,0,0.,4.8,1.,4.8
1979-08-02 23:12:43.530 ,0,0,,0,0.,4.8,0.,4.8,,0,0.,4.8,0.,4.8
1979-08-02 23:12:48.330 ,1,0,,0,0.,4.8,0.,4.8,,0,0.,4.8,2.,4.8
1979-08-02 23:12:53.130 ,1,0,,0,0.,4.8,0.,4.8,,0,0.,4.8,2.,4.8
1979-08-02 23:12:57.930 ,1,0,,0,1.,4.8,0.,4.8,,0,0.,4.8,2.,4.8
1979-08-02 23:13:02.730 ,1,0,,0,2.,4.8,1.,4.8,,0,0.,4.8,1.,4.8
1979-08-02 23:13:07.530 ,1,0,,0,7.,4.8,0.,4.8,,0,0.,4.8,0.,4.8
1979-08-02 23:13:12.330 ,1,0,,0,4.,4.8,0.,4.8,,0,0.,4.8,1.,4.8
1979-08-02 23:13:17.130 ,1,0,,0,3.,4.8,1.,4.8,,0,0.,4.8,1.,4.8
1979-08-02 23:13:21.930 ,1,0,,0,3.,4.8,0.,4.8,,0,0.,4.8,0.,4.8
1979-08-02 23:13:26.730 ,1,0,,0,0.,4.8,0.,4.8,,0,0.,4.8,1.,4.8
1979-08-02 23:13:31.530 ,1,0,,0,0.,4.8,0.,4.8,,0,0.,4.8,0.,4.8
1979-08-02 23:13:36.330 ,2,0,,0,0.,4.8,0.,4.8,,0,0.,4.8,1.,4.8
1979-08-02 23:13:41.130 ,2,0,,0,0.,4.8,0.,4.8,,0,0.,4.8,0.,4.8
1979-08-02 23:13:45.930 ,2,0,,0,1.,4.8,0.,4.8,,0,0.,4.8,1.,4.8
1979-08-02 23:13:50.730 ,2,0,,0,1.,4.8,0.,4.8,,0,0.,4.8,0.,4.8
1979-08-02 23:13:55.530 ,2,0,,0,3.,4.8,0.,4.8,,0,0.,4.8,0.,4.8
1979-08-02 23:14:00.330 ,2,0,,0,4.,4.8,0.,4.8,,0,0.,4.8,2.,4.8
1979-08-02 23:14:05.130 ,2,0,,0,2.,4.8,0.,4.8,,0,0.,4.8,1.,4.8
1979-08-02 23:14:09.930 ,2,0,,0,4.,4.8,0.,4.8,,0,0.,4.8,0.,4.8
1979-08-02 23:14:14.730 ,2,0,,0,0.,4.8,0.,4.8,,0,0.,4.8,0.,4.8
1979-08-02 23:14:19.530 ,2,0,,0,0.,4.8,0.,4.8,,0,0.,4.8,0.,4.8
1979-08-02 23:14:24.330 ,3,0,,0,0.,4.8,0.,4.8,,0,0.,4.8,0.,4.8
1979-08-02 23:14:29.130 ,3,0,,0,0.,4.8,0.,4.8,,0,0.,4.8,0.,4.8
1979-08-02 23:14:33.930 ,3,0,,0,0.,4.8,1.,4.8,,0,0.,4.8,0.,4.8
1979-08-02 23:14:38.730 ,3,0,,0,1.,4.8,0.,4.8,,0,0.,4.8,0.,4.8
1979-08-02 23:14:43.530 ,3,0,,0,2.,4.8,0.,4.8,,0,0.,4.8,0.,4.8
1979-08-02 23:14:48.330 ,3,0,,0,2.,4.8,0.,4.8,,0,0.,4.8,0.,4.8
1979-08-02 23:14:53.130 ,3,0,,0,4.,4.8,0.,4.8,,0,0.,4.8,0.,4.8
1979-08-02 23:14:57.930 ,3,0,,0,5.,4.8,0.,4.8,,0,0.,4.8,0.,4.8
1979-08-02 23:15:02.730 ,3,0,,0,0.,4.8,0.,4.8,,0,0.,4.8,1.,4.8
1979-08-02 23:15:07.530 ,3,0,,0,0.,4.8,0.,4.8,,0,0.,4.8,0.,4.8
1979-08-02 23:15:12.330 ,4,0,,0,0.,4.8,0.,4.8,,0,0.,4.8,0.,4.8
1979-08-02 23:15:17.130 ,4,0,,0,0.,4.8,0.,4.8,,0,0.,4.8,0.,4.8
1979-08-02 23:15:21.930 ,4,0,,0,0.,4.8,0.,4.8,,0,0.,4.8,0.,4.8
1979-08-02 23:15:26.730 ,4,0,,0,2.,4.8,0.,4.8,,0,0.,4.8,0.,4.8
1979-08-02 23:15:31.530 ,4,0,,0,2.,4.8,0.,4.8,,0,0.,4.8,0.,4.8
1979-08-02 23:15:36.330 ,4,0,,0,4.,4.8,0.,4.8,,0,0.,4.8,0.,4.8
1979-08-02 23:15:41.130 ,4,0,,0,1.,4.8,0.,4.8,,0,0.,4.8,0.,4.8
1979-08-02 23:15:45.930 ,4,0,,0,4.,4.8,0.,4.8,,0,0.,4.8,1.,4.8
1979-08-02 23:15:50.730 ,4,0,,0,0.,4.8,0.,4.8,,0,0.,4.8,0.,4.8
1979-08-02 23:15:55.530 ,4,0,,0,0.,4.8,0.,4.8,,0,0.,4.8,0.,4.8
1979-08-02 23:16:00.330 ,5,0,,0,0.,4.8,0.,4.8,,0,0.,4.8,0.,4.8
1979-08-02 23:16:05.130 ,5,0,,0,1.,4.8,0.,4.8,,0,0.,4.8,0.,4.8
1979-08-02 23:16:09.930 ,5,0,,0,1.,4.8,0.,4.8,,0,0.,4.8,0.,4.8
1979-08-02 23:16:14.730 ,5,0,,0,2.,4.8,0.,4.8,,0,0.,4.8,0.,4.8
1979-08-02 23:16:19.530 ,5,0,,0,3.,4.8,0.,4.8,,0,0.,4.8,0.,4.8
1979-08-02 23:16:24.330 ,5,0,,0,5.,4.8,0.,4.8,,0,0.,4.8,0.,4.8
1979-08-02 23:16:29.130 ,5,0,,0,3.,4.8,0.,4.8,,0,0.,4.8,0.,4.8
1979-08-02 23:16:33.930 ,5,0,,0,5.,4.8,0.,4.8,,0,0.,4.8,0.,4.8
1979-08-02 23:16:38.730 ,5,0,,0,0.,4.8,0.,4.8,,0,0.,4.8,0.,4.8
1979-08-02 23:16:43.530 ,5,0,,0,0.,4.8,0.,4.8,,0,1.,4.8,0.,4.8
1979-08-02 23:16:48.330 ,6,0,,0,0.,4.8,0.,4.8,,0,0.,4.8,0.,4.8
1979-08-02 23:16:53.130 ,6,0,,0,0.,4.8,0.,4.8,,0,0.,4.8,0.,4.8
1979-08-02 23:16:57.930 ,6,0,,0,0.,4.8,0.,4.8,,0,0.,4.8,0.,4.8
1979-08-02 23:17:02.730 ,6,0,,0,6.,4.8,0.,4.8,,0,0.,4.8,0.,4.8
1979-08-02 23:17:07.530 ,6,0,,0,2.,4.8,0.,4.8,,0,0.,4.8,0.,4.8
1979-08-02 23:17:12.330 ,6,0,,0,6.,4.8,0.,4.8,,0,0.,4.8,0.,4.8
1979-08-02 23:17:17.130 ,6,0,,0,6.,4.8,0.,4.8,,0,0.,4.8,0.,4.8
1979-08-02 23:17:21.930 ,6,0,,0,6.,4.8,0.,4.8,,0,0.,4.8,0.,4.8
1979-08-02 23:17:26.730 ,6,0,,0,0.,4.8,0.,4.8,,0,0.,4.8,1.,4.8
1979-08-02 23:17:31.530 ,6,0,,0,0.,4.8,0.,4.8,,0,0.,4.8,0.,4.8
1979-08-02 23:17:36.330 ,7,0,,0,0.,4.8,0.,4.8,,0,0.,4.8,0.,4.8
1979-08-02 23:17:41.130 ,7,0,,0,0.,4.8,0.,4.8,,0,0.,4.8,0.,4.8
1979-08-02 23:17:45.930 ,7,0,,0,1.,4.8,0.,4.8,,0,0.,4.8,0.,4.8
1979-08-02 23:17:50.730 ,7,0,,0,11.,4.8,0.,4.8,,0,0.,4.8,1.,4.8
1979-08-02 23:17:55.530 ,7,0,,0,5.,4.8,0.,4.8,,0,0.,4.8,0.,4.8
1979-08-02 23:18:00.330 ,7,0,,0,5.,4.8,0.,4.8,,0,0.,4.8,0.,4.8
1979-08-02 23:18:05.130 ,7,0,,0,12.,4.8,0.,4.8,,0,0.,4.8,0.,4.8
1979-08-02 23:18:09.930 ,7,0,,0,3.,4.8,0.,4.8,,0,0.,4.8,0.,4.8
1979-08-02 23:18:14.730 ,7,0,,0,0.,4.8,0.,4.8,,0,0.,4.8,0.,4.8
1979-08-02 23:18:19.530 ,7,0,,0,0.,4.8,0.,4.8,,0,0.,4.8,0.,4.8
1979-08-02 23:18:24.330 ,7,0,,0,0.,4.8,0.,4.8,,0,0.,4.8,0.,4.8
1979-08-02 23:18:29.130 ,7,0,,0,0.,4.8,0.,4.8,,0,0.,4.8,0.,4.8
1979-08-02 23:18:33.930 ,7,0,,0,2.,4.8,0.,4.8,,0,0.,4.8,0.,4.8
1979-08-02 23:18:38.730 ,7,0,,0,9.,4.8,0.,4.8,,0,0.,4.8,0.,4.8
1979-08-02 23:18:43.530 ,7,0,,0,7.,4.8,0.,4.8,,0,0.,4.8,0.,4.8
1979-08-02 23:18:48.330 ,7,0,,0,6.,4.8,0.,4.8,,0,0.,4.8,0.,4.8
1979-08-02 23:18:53.130 ,7,0,,0,6.,4.8,0.,4.8,,0,0.,4.8,0.,4.8
1979-08-02 23:18:57.930 ,7,0,,0,8.,4.8,0.,4.8,,0,0.,4.8,0.,4.8
1979-08-02 23:19:02.730 ,7,0,,0,0.,4.8,0.,4.8,,0,0.,4.8,0.,4.8
1979-08-02 23:19:07.530 ,7,0,,0,0.,4.8,0.,4.8,,0,0.,4.8,0.,4.8
1979-08-02 23:19:12.330 ,6,0,,0,0.,4.8,0.,4.8,,0,0.,4.8,0.,4.8
1979-08-02 23:19:17.130 ,6,0,,0,0.,4.8,0.,4.8,,0,0.,4.8,0.,4.8
1979-08-02 23:19:21.930 ,6,0,,0,0.,4.8,0.,4.8,,0,0.,4.8,0.,4.8
1979-08-02 23:19:26.730 ,6,0,,0,3.,4.8,0.,4.8,,0,0.,4.8,0.,4.8
1979-08-02 23:19:31.530 ,6,0,,0,4.,4.8,0.,4.8,,0,0.,4.8,0.,4.8
1979-08-02 23:19:36.330 ,6,0,,0,6.,4.8,0.,4.8,,0,0.,4.8,0.,4.8
1979-08-02 23:19:41.130 ,6,0,,0,0.,4.8,0.,4.8,,0,0.,4.8,0.,4.8
1979-08-02 23:19:45.930 ,6,0,,0,2.,4.8,0.,4.8,,0,0.,4.8,0.,4.8
1979-08-02 23:19:50.730 ,6,0,,0,0.,4.8,0.,4.8,,0,0.,4.8,0.,4.8
1979-08-02 23:19:55.530 ,6,0,,0,0.,4.8,0.,4.8,,0,0.,4.8,0.,4.8
1979-08-02 23:20:00.330 ,5,0,,0,0.,4.8,0.,4.8,,0,0.,4.8,0.,4.8
1979-08-02 23:20:05.130 ,5,0,,0,0.,4.8,0.,4.8,,0,0.,4.8,0.,4.8
1979-08-02 23:20:09.930 ,5,0,,0,2.,4.8,0.,4.8,,0,0.,4.8,0.,4.8
1979-08-02 23:20:14.730 ,5,0,,0,3.,4.8,0.,4.8,,0,0.,4.8,0.,4.8
1979-08-02 23:20:19.530 ,5,0,,0,4.,4.8,0.,4.8,,0,0.,4.8,0.,4.8
1979-08-02 23:20:24.330 ,5,0,,0,4.,4.8,0.,4.8,,0,0.,4.8,0.,4.8
1979-08-02 23:20:29.130 ,5,0,,0,4.,4.8,0.,4.8,,0,0.,4.8,1.,4.8
1979-08-02 23:20:33.930 ,5,0,,0,3.,4.8,0.,4.8,,0,0.,4.8,0.,4.8
1979-08-02 23:20:38.730 ,5,0,,0,0.,4.8,0.,4.8,,0,0.,4.8,0.,4.8
1979-08-02 23:20:43.530 ,5,0,,0,0.,4.8,0.,4.8,,0,0.,4.8,0.,4.8
1979-08-02 23:20:48.330 ,4,0,,0,0.,4.8,0.,4.8,,0,0.,4.8,0.,4.8
1979-08-02 23:20:53.130 ,4,0,,0,0.,4.8,0.,4.8,,0,0.,4.8,0.,4.8
1979-08-02 23:20:57.930 ,4,0,,0,0.,4.8,0.,4.8,,0,0.,4.8,0.,4.8
1979-08-02 23:21:02.730 ,4,0,,0,4.,4.8,0.,4.8,,0,0.,4.8,1.,4.8
1979-08-02 23:21:07.530 ,4,0,,0,1.,4.8,0.,4.8,,0,0.,4.8,0.,4.8
1979-08-02 23:21:12.330 ,4,0,,0,0.,4.8,0.,4.8,,0,0.,4.8,0.,4.8
1979-08-02 23:21:17.130 ,4,0,,0,3.,4.8,0.,4.8,,0,0.,4.8,0.,4.8
1979-08-02 23:21:21.930 ,4,0,,0,0.,4.8,0.,4.8,,0,0.,4.8,1.,4.8
1979-08-02 23:21:26.730 ,4,0,,0,0.,4.8,0.,4.8,,0,0.,4.8,0.,4.8
1979-08-02 23:21:31.530 ,4,0,,0,0.,4.8,0.,4.8,,0,0.,4.8,1.,4.8
1979-08-02 23:21:36.330 ,3,0,,0,0.,4.8,0.,4.8,,0,0.,4.8,0.,4.8
1979-08-02 23:21:41.130 ,3,0,,0,0.,4.8,0.,4.8,,0,0.,4.8,0.,4.8
1979-08-02 23:21:45.930 ,3,0,,0,1.,4.8,0.,4.8,,0,0.,4.8,1.,4.8
1979-08-02 23:21:50.730 ,3,0,,0,3.,4.8,1.,4.8,,0,0.,4.8,0.,4.8
1979-08-02 23:21:55.530 ,3,0,,0,4.,4.8,0.,4.8,,0,0.,4.8,2.,4.8
1979-08-02 23:22:00.330 ,3,0,,0,3.,4.8,0.,4.8,,0,0.,4.8,1.,4.8
1979-08-02 23:22:05.130 ,3,0,,0,0.,4.8,0.,4.8,,0,0.,4.8,0.,4.8
1979-08-02 23:22:09.930 ,3,0,,0,1.,4.8,0.,4.8,,0,0.,4.8,0.,4.8
1979-08-02 23:22:14.730 ,3,0,,0,0.,4.8,0.,4.8,,0,0.,4.8,0.,4.8
1979-08-02 23:22:19.530 ,3,0,,0,0.,4.8,0.,4.8,,0,0.,4.8,1.,4.8
1979-08-02 23:22:24.330 ,2,0,,0,0.,4.8,0.,4.8,,0,0.,4.8,0.,4.8
1979-08-02 23:22:29.130 ,2,0,,0,0.,4.8,0.,4.8,,0,0.,4.8,0.,4.8
1979-08-02 23:22:33.930 ,2,0,,0,2.,4.8,0.,4.8,,0,0.,4.8,1.,4.8
1979-08-02 23:22:38.730 ,2,0,,0,2.,4.8,0.,4.8,,0,0.,4.8,1.,4.8
1979-08-02 23:22:43.530 ,2,0,,0,4.,4.8,0.,4.8,,0,0.,4.8,0.,4.8
1979-08-02 23:22:48.330 ,2,0,,0,4.,4.8,0.,4.8,,0,0.,4.8,0.,4.8
1979-08-02 23:22:53.130 ,2,0,,0,4.,4.8,0.,4.8,,0,0.,4.8,0.,4.8
1979-08-02 23:22:57.930 ,2,0,,0,3.,4.8,0.,4.8,,0,0.,4.8,0.,4.8
1979-08-02 23:23:02.730 ,2,0,,0,0.,4.8,0.,4.8,,0,0.,4.8,0.,4.8
1979-08-02 23:23:07.530 ,2,0,,0,0.,4.8,0.,4.8,,0,0.,4.8,0.,4.8
1979-08-02 23:23:12.330 ,1,0,,0,0.,4.8,0.,4.8,,0,0.,4.8,0.,4.8
1979-08-02 23:23:17.130 ,1,0,,0,0.,4.8,0.,4.8,,0,0.,4.8,0.,4.8
1979-08-02 23:23:21.930 ,1,0,,0,4.,4.8,0.,4.8,,0,0.,4.8,1.,4.8
1979-08-02 23:23:26.730 ,1,0,,0,2.,4.8,0.,4.8,,0,0.,4.8,0.,4.8
1979-08-02 23:23:31.530 ,1,0,,0,3.,4.8,0.,4.8,,0,0.,4.8,3.,4.8
1979-08-02 23:23:36.330 ,1,0,,0,4.,4.8,0.,4.8,,0,0.,4.8,2.,4.8
1979-08-02 23:23:41.130 ,1,0,,0,4.,4.8,1.,4.8,,0,0.,4.8,0.,4.8
1979-08-02 23:23:45.930 ,1,0,,0,3.,4.8,0.,4.8,,0,0.,4.8,0.,4.8
1979-08-02 23:23:50.730 ,1,0,,0,0.,4.8,0.,4.8,,0,0.,4.8,0.,4.8
1979-08-02 23:23:55.530 ,1,0,,0,0.,4.8,0.,4.8,,0,0.,4.8,1.,4.8
1979-08-02 23:24:00.330 ,0,0,,0,0.,4.8,0.,4.8,,0,0.,4.8,2.,4.8
1979-08-02 23:24:05.130 ,0,0,,0,0.,4.8,0.,4.8,,0,0.,4.8,1.,4.8
1979-08-02 23:24:09.930 ,0,0,,0,0.,4.8,0.,4.8,,0,0.,4.8,0.,4.8
1979-08-02 23:24:14.730 ,0,0,,0,3.,4.8,0.,4.8,,0,0.,4.8,0.,4.8
1979-08-02 23:24:19.530 ,0,0,,0,10.,4.8,0.,4.8,,0,0.,4.8,0.,4.8
1979-08-02 23:24:24.330 ,0,0,,0,2.,4.8,1.,4.8,,0,0.,4.8,2.,4.8
1979-08-02 23:24:29.130 ,0,0,,0,6.,4.8,2.,4.8,,0,0.,4.8,0.,4.8
1979-08-02 23:24:33.930 ,0,0,,0,1.,4.8,0.,4.8,,0,0.,4.8,1.,4.8
1979-08-02 23:24:38.730 ,0,0,,0,0.,4.8,0.,4.8,,0,0.,4.8,0.,4.8
1979-08-02 23:24:43.530 ,0,0,,0,0.,4.8,0.,4.8,,0,0.,4.8,1.,4.8
1979-08-02 23:24:48.330 ,0,0,,0,0.,4.8,0.,4.8,,0,0.,4.8,1.,4.8
1979-08-02 23:24:53.130 ,0,0,,0,0.,4.8,0.,4.8,,0,0.,4.8,2.,4.8
1979-08-02 23:24:57.930 ,0,0,,0,0.,4.8,0.,4.8,,0,0.,4.8,0.,4.8
1979-08-02 23:25:02.730 ,0,0,,0,2.,4.8,0.,4.8,,0,0.,4.8,2.,4.8
1979-08-02 23:25:07.530 ,0,0,,0,5.,4.8,0.,4.8,,0,0.,4.8,0.,4.8
1979-08-02 23:25:12.330 ,0,0,,0,6.,4.8,2.,4.8,,0,0.,4.8,2.,4.8
1979-08-02 23:25:17.130 ,0,0,,0,3.,4.8,0.,4.8,,0,0.,4.8,3.,4.8
1979-08-02 23:25:21.930 ,0,0,,0,2.,4.8,0.,4.8,,0,0.,4.8,0.,4.8
1979-08-02 23:25:26.730 ,0,0,,0,0.,4.8,0.,4.8,,0,0.,4.8,1.,4.8
1979-08-02 23:25:31.530 ,0,0,,0,0.,4.8,0.,4.8,,0,0.,4.8,0.,4.8
1979-08-02 23:25:36.330 ,1,0,,0,0.,4.8,0.,4.8,,0,0.,4.8,1.,4.8
1979-08-02 23:25:41.130 ,1,0,,0,0.,4.8,0.,4.8,,0,0.,4.8,0.,4.8
1979-08-02 23:25:45.930 ,1,0,,0,1.,4.8,0.,4.8,,0,0.,4.8,1.,4.8
1979-08-02 23:25:50.730 ,1,0,,0,2.,4.8,0.,4.8,,0,0.,4.8,0.,4.8
1979-08-02 23:25:55.530 ,1,0,,0,5.,4.8,1.,4.8,,0,0.,4.8,0.,4.8
1979-08-02 23:26:00.330 ,1,0,,0,3.,4.8,0.,4.8,,0,0.,4.8,1.,4.8
1979-08-02 23:26:05.130 ,1,0,,0,5.,4.8,0.,4.8,,0,0.,4.8,0.,4.8
1979-08-02 23:26:09.930 ,1,0,,0,2.,4.8,0.,4.8,,0,0.,4.8,1.,4.8
1979-08-02 23:26:14.730 ,1,0,,0,0.,4.8,0.,4.8,,0,0.,4.8,0.,4.8
1979-08-02 23:26:19.530 ,1,0,,0,0.,4.8,0.,4.8,,0,0.,4.8,1.,4.8
1979-08-02 23:26:24.330 ,2,0,,0,0.,4.8,0.,4.8,,0,0.,4.8,0.,4.8
1979-08-02 23:26:29.130 ,2,0,,0,0.,4.8,0.,4.8,,0,0.,4.8,0.,4.8
1979-08-02 23:26:33.930 ,2,0,,0,0.,4.8,0.,4.8,,0,1.,4.8,0.,4.8
1979-08-02 23:26:38.730 ,2,0,,0,4.,4.8,0.,4.8,,0,0.,4.8,0.,4.8
1979-08-02 23:26:43.530 ,2,0,,0,4.,4.8,0.,4.8,,0,0.,4.8,0.,4.8
1979-08-02 23:26:48.330 ,2,0,,0,1.,4.8,0.,4.8,,0,0.,4.8,0.,4.8
1979-08-02 23:26:53.130 ,2,0,,0,2.,4.8,0.,4.8,,0,0.,4.8,0.,4.8
1979-08-02 23:26:57.930 ,2,0,,0,4.,4.8,0.,4.8,,0,0.,4.8,0.,4.8
1979-08-02 23:27:02.730 ,2,0,,0,0.,4.8,0.,4.8,,0,0.,4.8,0.,4.8
1979-08-02 23:27:07.530 ,2,0,,0,1.,4.8,0.,4.8,,0,0.,4.8,0.,4.8
1979-08-02 23:27:12.330 ,3,0,,0,0.,4.8,0.,4.8,,0,0.,4.8,0.,4.8
1979-08-02 23:27:17.130 ,3,0,,0,0.,4.8,1.,4.8,,0,0.,4.8,1.,4.8
1979-08-02 23:27:21.930 ,3,0,,0,0.,4.8,0.,4.8,,0,0.,4.8,0.,4.8
1979-08-02 23:27:26.730 ,3,0,,0,2.,4.8,0.,4.8,,0,0.,4.8,1.,4.8
1979-08-02 23:27:31.530 ,3,0,,0,4.,4.8,0.,4.8,,0,0.,4.8,0.,4.8
1979-08-02 23:27:36.330 ,3,0,,0,4.,4.8,0.,4.8,,0,1.,4.8,0.,4.8
1979-08-02 23:27:41.130 ,3,0,,0,2.,4.8,0.,4.8,,0,0.,4.8,0.,4.8
1979-08-02 23:27:45.930 ,3,0,,0,3.,4.8,0.,4.8,,0,0.,4.8,1.,4.8
1979-08-02 23:27:50.730 ,3,0,,0,0.,4.8,0.,4.8,,0,0.,4.8,0.,4.8
1979-08-02 23:27:55.530 ,3,0,,0,0.,4.8,0.,4.8,,0,0.,4.8,0.,4.8
1979-08-02 23:28:00.330 ,4,0,,0,0.,4.8,0.,4.8,,0,0.,4.8,0.,4.8
1979-08-02 23:28:05.130 ,4,0,,0,0.,4.8,0.,4.8,,0,0.,4.8,0.,4.8
1979-08-02 23:28:09.930 ,4,0,,0,0.,4.8,0.,4.8,,0,0.,4.8,0.,4.8
1979-08-02 23:28:14.730 ,4,0,,0,4.,4.8,0.,4.8,,0,0.,4.8,0.,4.8
1979-08-02 23:28:19.530 ,4,0,,0,3.,4.8,0.,4.8,,0,0.,4.8,0.,4.8
1979-08-02 23:28:24.330 ,4,0,,0,1.,4.8,0.,4.8,,0,0.,4.8,1.,4.8
1979-08-02 23:28:29.130 ,4,0,,0,4.,4.8,0.,4.8,,0,0.,4.8,0.,4.8
1979-08-02 23:28:33.930 ,4,0,,0,3.,4.8,0.,4.8,,0,0.,4.8,1.,4.8
1979-08-02 23:28:38.730 ,4,0,,0,0.,4.8,0.,4.8,,0,0.,4.8,0.,4.8
1979-08-02 23:28:43.530 ,4,0,,0,0.,4.8,0.,4.8,,0,0.,4.8,0.,4.8
1979-08-02 23:28:48.330 ,5,0,,0,0.,4.8,0.,4.8,,0,0.,4.8,0.,4.8
1979-08-02 23:28:53.130 ,5,0,,0,0.,4.8,0.,4.8,,0,0.,4.8,0.,4.8
1979-08-02 23:28:57.930 ,5,0,,0,0.,4.8,0.,4.8,,0,0.,4.8,0.,4.8
1979-08-02 23:29:02.730 ,5,0,,0,0.,4.8,0.,4.8,,0,0.,4.8,0.,4.8
1979-08-02 23:29:07.530 ,5,0,,0,2.,4.8,0.,4.8,,0,0.,4.8,0.,4.8
1979-08-02 23:29:12.330 ,5,0,,0,3.,4.8,0.,4.8,,0,0.,4.8,0.,4.8
1979-08-02 23:29:17.130 ,5,0,,0,1.,4.8,0.,4.8,,0,0.,4.8,0.,4.8
1979-08-02 23:29:21.930 ,5,0,,0,3.,4.8,0.,4.8,,0,0.,4.8,0.,4.8
1979-08-02 23:29:26.730 ,5,0,,0,0.,4.8,0.,4.8,,0,0.,4.8,0.,4.8
1979-08-02 23:29:31.530 ,5,0,,0,0.,4.8,0.,4.8,,0,0.,4.8,0.,4.8
1979-08-02 23:29:36.330 ,6,0,,0,0.,4.8,0.,4.8,,0,0.,4.8,0.,4.8
1979-08-02 23:29:41.130 ,6,0,,0,0.,4.8,0.,4.8,,0,0.,4.8,0.,4.8
1979-08-02 23:29:45.930 ,6,0,,0,1.,4.8,0.,4.8,,0,0.,4.8,0.,4.8
1979-08-02 23:29:50.730 ,6,0,,0,6.,4.8,0.,4.8,,0,0.,4.8,0.,4.8
1979-08-02 23:29:55.530 ,6,0,,0,3.,4.8,0.,4.8,,0,0.,4.8,0.,4.8
1979-08-02 23:30:00.330 ,6,0,,0,5.,4.8,0.,4.8,,0,0.,4.8,1.,4.8
1979-08-02 23:30:05.130 ,6,0,,0,4.,4.8,0.,4.8,,0,0.,4.8,0.,4.8
1979-08-02 23:30:09.930 ,6,0,,0,2.,4.8,0.,4.8,,0,0.,4.8,0.,4.8
1979-08-02 23:30:14.730 ,6,0,,0,0.,4.8,0.,4.8,,0,0.,4.8,0.,4.8
1979-08-02 23:30:19.530 ,6,0,,0,0.,4.8,0.,4.8,,0,0.,4.8,0.,4.8
1979-08-02 23:30:24.330 ,7,0,,0,0.,4.8,0.,4.8,,0,0.,4.8,0.,4.8
1979-08-02 23:30:29.130 ,7,0,,0,0.,4.8,0.,4.8,,0,0.,4.8,0.,4.8
1979-08-02 23:30:33.930 ,7,0,,0,2.,4.8,0.,4.8,,0,0.,4.8,0.,4.8
1979-08-02 23:30:38.730 ,7,0,,0,12.,4.8,0.,4.8,,0,0.,4.8,0.,4.8
1979-08-02 23:30:43.530 ,7,0,,0,15.,4.8,0.,4.8,,0,0.,4.8,0.,4.8
1979-08-02 23:30:48.330 ,7,0,,0,7.,4.8,0.,4.8,,0,0.,4.8,0.,4.8
1979-08-02 23:30:53.130 ,7,0,,0,11.,4.8,0.,4.8,,0,0.,4.8,0.,4.8
1979-08-02 23:30:57.930 ,7,0,,0,7.,4.8,0.,4.8,,0,0.,4.8,0.,4.8
1979-08-02 23:31:02.730 ,7,0,,0,0.,4.8,0.,4.8,,0,0.,4.8,0.,4.8
1979-08-02 23:31:07.530 ,7,0,,0,0.,4.8,0.,4.8,,0,0.,4.8,0.,4.8
1979-08-02 23:31:12.330 ,3,1,,0,0.,4.8,0.,4.8,,0,0.,4.8,0.,4.8
1979-08-02 23:31:17.130 ,3,1,,0,0.,4.8,0.,4.8,,0,0.,4.8,0.,4.8
1979-08-02 23:31:21.930 ,3,1,,0,1.,4.8,0.,4.8,,0,0.,4.8,0.,4.8
1979-08-02 23:31:26.730 ,3,1,,0,5.,4.8,0.,4.8,,0,0.,4.8,0.,4.8
1979-08-02 23:31:31.530 ,3,1,,0,7.,4.8,0.,4.8,,0,0.,4.8,0.,4.8
1979-08-02 23:31:36.330 ,0,1,,0,3.,4.8,0.,4.8,,0,0.,4.8,0.,4.8
1979-08-02 23:31:41.130 ,0,1,,0,3.,4.8,0.,4.8,,0,0.,4.8,1.,4.8
1979-08-02 23:31:45.930 ,0,1,,0,3.,4.8,0.,4.8,,0,0.,4.8,0.,4.8
1979-08-02 23:31:50.730 ,0,1,,0,0.,4.8,0.,4.8,,0,0.,4.8,0.,4.8
1979-08-02 23:31:55.530 ,0,1,,0,0.,4.8,0.,4.8,,0,0.,4.8,1.,4.8
1979-08-02 23:32:00.330 ,4,1,,0,0.,4.8,0.,4.8,,0,0.,4.8,4.,4.8
1979-08-02 23:32:05.130 ,4,1,,0,0.,4.8,0.,4.8,,0,0.,4.8,0.,4.8
1979-08-02 23:32:09.930 ,4,1,,0,1.,4.8,0.,4.8,,0,0.,4.8,1.,4.8
1979-08-02 23:32:14.730 ,4,1,,0,2.,4.8,0.,4.8,,0,0.,4.8,0.,4.8
1979-08-02 23:32:19.530 ,4,1,,0,1.,4.8,0.,4.8,,0,0.,4.8,0.,4.8
1979-08-02 23:32:24.330 ,7,1,,0,2.,4.8,0.,4.8,,0,0.,4.8,0.,4.8
1979-08-02 23:32:29.130 ,7,1,,0,3.,4.8,0.,4.8,,0,0.,4.8,0.,4.8
1979-08-02 23:32:33.930 ,7,1,,0,4.,4.8,0.,4.8,,0,0.,4.8,0.,4.8
1979-08-02 23:32:38.730 ,7,1,,0,0.,4.8,0.,4.8,,0,0.,4.8,0.,4.8
1979-08-02 23:32:43.530 ,7,1,,0,0.,4.8,0.,4.8,,0,0.,4.8,0.,4.8
1979-08-02 23:32:48.330 ,3,1,,0,0.,4.8,0.,4.8,,0,0.,4.8,0.,4.8
1979-08-02 23:32:53.130 ,3,1,,0,0.,4.8,0.,4.8,,0,0.,4.8,0.,4.8
1979-08-02 23:32:57.930 ,3,1,,0,0.,4.8,0.,4.8,,0,0.,4.8,1.,4.8
1979-08-02 23:33:02.730 ,3,1,,0,4.,4.8,0.,4.8,,0,0.,4.8,0.,4.8
1979-08-02 23:33:07.530 ,3,1,,0,4.,4.8,0.,4.8,,0,0.,4.8,0.,4.8
1979-08-02 23:33:12.330 ,0,1,,0,2.,4.8,0.,4.8,,0,0.,4.8,0.,4.8
1979-08-02 23:33:17.130 ,0,1,,0,4.,4.8,0.,4.8,,0,0.,4.8,0.,4.8
1979-08-02 23:33:21.930 ,0,1,,0,2.,4.8,0.,4.8,,0,0.,4.8,0.,4.8
1979-08-02 23:33:26.730 ,0,1,,0,0.,4.8,0.,4.8,,0,0.,4.8,0.,4.8
1979-08-02 23:33:31.530 ,0,1,,0,0.,4.8,0.,4.8,,0,0.,4.8,0.,4.8
1979-08-02 23:33:36.330 ,4,1,,0,0.,4.8,0.,4.8,,0,0.,4.8,0.,4.8
1979-08-02 23:33:41.130 ,4,1,,0,0.,4.8,0.,4.8,,0,0.,4.8,1.,4.8
1979-08-02 23:33:45.930 ,4,1,,0,0.,4.8,0.,4.8,,0,0.,4.8,0.,4.8
1979-08-02 23:33:50.730 ,4,1,,0,2.,4.8,0.,4.8,,0,0.,4.8,1.,4.8
1979-08-02 23:33:55.530 ,4,1,,0,3.,4.8,0.,4.8,,0,0.,4.8,0.,4.8
1979-08-02 23:34:00.330 ,7,1,,0,1.,4.8,0.,4.8,,0,0.,4.8,0.,4.8
1979-08-02 23:34:05.130 ,7,1,,0,1.,4.8,0.,4.8,,0,0.,4.8,0.,4.8
1979-08-02 23:34:09.930 ,7,1,,0,4.,4.8,0.,4.8,,0,0.,4.8,0.,4.8
1979-08-02 23:34:14.730 ,7,1,,0,0.,4.8,0.,4.8,,0,0.,4.8,0.,4.8
1979-08-02 23:34:19.530 ,7,1,,0,0.,4.8,0.,4.8,,0,0.,4.8,0.,4.8
1979-08-02 23:34:24.330 ,3,1,,0,0.,4.8,1.,4.8,,0,0.,4.8,0.,4.8
1979-08-02 23:34:29.130 ,3,1,,0,0.,4.8,0.,4.8,,0,0.,4.8,0.,4.8
1979-08-02 23:34:33.930 ,3,1,,0,0.,4.8,0.,4.8,,0,0.,4.8,0.,4.8
1979-08-02 23:34:38.730 ,3,1,,0,6.,4.8,0.,4.8,,0,0.,4.8,0.,4.8
1979-08-02 23:34:43.530 ,3,1,,0,2.,4.8,0.,4.8,,0,0.,4.8,0.,4.8
1979-08-02 23:34:48.330 ,0,1,,0,5.,4.8,0.,4.8,,0,0.,4.8,0.,4.8
1979-08-02 23:34:53.130 ,0,1,,0,2.,4.8,0.,4.8,,0,0.,4.8,2.,4.8
1979-08-02 23:34:57.930 ,0,1,,0,2.,4.8,1.,4.8,,0,0.,4.8,1.,4.8
1979-08-02 23:35:02.730 ,0,1,,0,0.,4.8,0.,4.8,,0,0.,4.8,0.,4.8
1979-08-02 23:35:07.530 ,0,1,,0,0.,4.8,0.,4.8,,0,0.,4.8,2.,4.8
1979-08-02 23:35:12.320 ,4,1,,0,0.,4.8,0.,4.8,,0,0.,4.8,4.,4.8
1979-08-02 23:35:17.130 ,4,1,,0,0.,4.8,0.,4.8,,0,0.,4.8,3.,4.8
1979-08-02 23:35:21.930 ,4,1,,0,2.,4.8,0.,4.8,,0,0.,4.8,0.,4.8
1979-08-02 23:35:26.720 ,4,1,,0,5.,4.8,0.,4.8,,0,0.,4.8,1.,4.8
1979-08-02 23:35:31.520 ,4,1,,0,3.,4.8,0.,4.8,,0,0.,4.8,1.,4.8
1979-08-02 23:35:36.320 ,7,1,,0,2.,4.8,0.,4.8,,0,0.,4.8,0.,4.8
1979-08-02 23:35:41.130 ,7,1,,0,5.,4.8,0.,4.8,,0,0.,4.8,0.,4.8
1979-08-02 23:35:45.930 ,7,1,,0,1.,4.8,0.,4.8,,0,0.,4.8,0.,4.8
1979-08-02 23:35:50.720 ,7,1,,0,0.,4.8,0.,4.8,,0,0.,4.8,0.,4.8
1979-08-02 23:35:55.520 ,7,1,,0,0.,4.8,0.,4.8,,0,0.,4.8,0.,4.8
1979-08-02 23:36:00.320 ,3,1,,0,0.,4.8,0.,4.8,,0,0.,4.8,0.,4.8
1979-08-02 23:36:05.130 ,3,1,,0,0.,4.8,0.,4.8,,0,0.,4.8,0.,4.8
1979-08-02 23:36:09.930 ,3,1,,0,1.,4.8,0.,4.8,,0,0.,4.8,0.,4.8
1979-08-02 23:36:14.720 ,3,1,,0,3.,4.8,0.,4.8,,0,0.,4.8,2.,4.8
1979-08-02 23:36:19.520 ,3,1,,0,2.,4.8,0.,4.8,,0,0.,4.8,0.,4.8
1979-08-02 23:36:24.320 ,0,1,,0,5.,4.8,0.,4.8,,0,0.,4.8,1.,4.8
1979-08-02 23:36:29.130 ,0,1,,0,4.,4.8,0.,4.8,,0,0.,4.8,0.,4.8
1979-08-02 23:36:33.930 ,0,1,,0,2.,4.8,0.,4.8,,0,0.,4.8,0.,4.8
1979-08-02 23:36:38.720 ,0,1,,0,0.,4.8,0.,4.8,,0,0.,4.8,0.,4.8
1979-08-02 23:36:43.520 ,0,1,,0,0.,4.8,0.,4.8,,0,0.,4.8,0.,4.8
1979-08-02 23:36:48.320 ,4,1,,0,0.,4.8,1.,4.8,,0,0.,4.8,2.,4.8
1979-08-02 23:36:53.130 ,4,1,,0,0.,4.8,0.,4.8,,0,0.,4.8,2.,4.8
1979-08-02 23:36:57.930 ,4,1,,0,0.,4.8,0.,4.8,,0,0.,4.8,1.,4.8